#timestamp,LO_Frequency,Hit 
1498276815.6,286047016.4,N
1498276835.4,286047016.3,N
1498276855.2,286047016.8,N
1498276875.1,286047014.4,N
1498276876.0,286047014.4,N
1498276895.8,286047016.7,N
1498276915.6,286047016.8,N
1498276935.4,286047017.2,N
1498276955.3,286047016.3,N
1498276975.1,286047015.3,N
1498276995.8,286047015.4,N
1498277015.7,286047014.6,N
1498277035.5,286047016.8,N
1498277055.3,286047016.1,N
1498277075.2,286047014.1,N
1498277095.9,286047015.1,N
1498277115.7,286047015.3,N
1498277135.6,286047015.0,N
1498277155.4,286047015.4,N
1498277175.2,286047016.0,N
1498277195.1,286047015.9,N
1498277196.0,286047015.9,N
1498277215.8,286047015.9,N
1498277235.6,286047018.5,N
1498277255.4,286047015.9,N
1498277275.3,286047016.8,N
1498277295.1,286047017.0,N
1498277315.8,286047017.0,N
1498277335.7,286047017.2,N
1498277355.5,286047017.1,N
1498277375.3,286047014.3,N
1498277395.2,286047014.7,N
1498277415.9,286047016.9,N
1498277435.7,286047014.5,N
1498277455.6,286047015.2,N
1498277475.4,286047012.6,N
1498277495.2,286047013.7,N
1498277515.0,286047011.3,N
1498277516.0,286047011.3,N
1498277535.8,286047011.0,N
1498277555.6,286047015.6,N
1498277575.4,286047011.0,N
1498277595.3,286047012.8,N
1498277615.1,286047017.1,N
1498277635.8,286047015.4,N
1498277655.7,286047015.0,N
1498277675.5,286047014.4,N
1498277695.3,286047014.5,N
1498277715.2,286047018.7,N
1498277735.9,286047014.8,N
1498277755.7,286047016.8,N
1498277775.5,286047016.6,N
1498277795.4,286047017.6,N
1498277815.2,286047017.3,N
1498277835.0,286047017.6,N
1498277835.9,286047017.6,N
1498277855.8,286047020.2,N
1498277875.6,286047017.6,N
1498277895.4,286047017.5,N
1498277915.3,286047015.9,N
1498277935.1,286047017.4,N
1498277936.0,286047017.4,N
1498277955.8,286047018.2,N
1498277975.7,286047016.5,N
1498277995.5,286047014.2,N
1498278015.3,286047014.2,N
1498278035.2,286047016.8,N
1498278055.9,286047018.2,N
1498278075.7,286047019.7,N
1498278095.5,286047021.8,N
1498278115.4,286047019.8,N
1498278135.2,286047020.2,N
1498278155.0,286047020.3,N
1498278155.9,286047020.3,N
1498278175.8,286047019.3,N
1498278195.6,286047020.2,N
1498278215.4,286047019.2,N
1498278235.3,286047019.2,N
1498278255.1,286047017.8,N
1498278275.8,286047017.3,N
1498278295.7,286047020.0,N
1498278315.5,286047021.8,N
1498278335.3,286047017.5,N
1498278355.2,286047019.7,N
1498278375.9,286047022.0,N
1498278395.7,286047019.8,N
1498278415.6,286047017.9,N
1498278435.4,286047017.6,N
1498278455.2,286047018.2,N
1498278475.0,286047017.0,N
1498278475.9,286047017.0,N
1498278495.8,286047018.1,N
1498278515.6,286047016.2,N
1498278535.4,286047016.7,N
1498278555.3,286047016.4,N
1498278575.1,286047018.5,N
1498278595.8,286047018.8,N
1498278615.7,286047018.1,N
1498278635.5,286047019.7,N
1498278655.3,286047019.9,N
1498278675.2,286047019.4,N
1498278695.9,286047021.6,N
1498278715.7,286047019.9,N
1498278735.6,286047019.9,N
1498278755.4,286047021.1,N
1498278775.2,286047021.5,N
1498278795.0,286047019.0,N
1498278795.9,286047019.0,N
1498278815.8,286047017.9,N
1498278835.6,286047015.7,N
1498278855.4,286047018.1,N
1498278875.3,286047018.5,N
1498278895.1,286047018.4,N
1498278896.0,286047018.4,N
1498278915.8,286047020.0,N
1498278935.7,286047018.8,N
1498278955.5,286047018.8,N
1498278975.3,286047018.4,N
1498278995.2,286047016.2,N
1498279015.9,286047014.9,N
1498279035.7,286047014.1,N
1498279055.6,286047016.9,N
1498279075.4,286047016.3,N
1498279095.2,286047020.3,N
1498279115.0,286047018.6,N
1498279115.9,286047018.6,N
1498279135.8,286047016.0,N
1498279155.6,286047016.7,N
1498279175.4,286047016.7,N
1498279195.3,286047017.2,N
1498279215.1,286047016.0,N
1498279216.0,286047016.0,N
1498279235.8,286047016.0,N
1498279255.7,286047016.3,N
1498279275.5,286047016.6,N
1498279295.3,286047018.0,N
1498279315.2,286047016.3,N
1498279335.9,286047015.9,N
1498279355.7,286047016.1,N
1498279375.5,286047016.1,N
1498279395.4,286047018.1,N
1498279415.2,286047017.3,N
1498279435.0,286047019.9,N
1498279435.9,286047019.9,N
1498279455.8,286047016.0,N
1498279475.6,286047016.8,N
1498279495.4,286047014.7,N
1498279515.3,286047016.8,N
1498279535.1,286047016.8,N
1498279536.0,286047016.8,N
1498279555.8,286047015.7,N
1498279575.7,286047016.3,N
1498279595.5,286047014.2,N
1498279615.3,286047016.0,N
1498279635.2,286047016.3,N
1498279655.9,286047016.8,N
1498279675.7,286047014.3,N
1498279695.5,286047016.2,N
1498279715.4,286047017.5,N
1498279735.2,286047018.3,N
1498279755.0,286047017.0,N
1498279755.9,286047017.0,N
1498279775.8,286047016.7,N
1498279795.6,286047015.0,N
1498279815.4,286047016.7,N
1498279835.3,286047014.6,N
1498279855.1,286047018.1,N
1498279856.0,286047018.1,N
1498279875.8,286047018.1,N
1498279895.7,286047017.3,N
1498279915.5,286047017.6,N
1498279935.3,286047015.8,N
1498279955.2,286047017.9,N
1498279975.9,286047015.7,N
1498279995.7,286047016.9,N
1498280015.6,286047016.8,N
1498280035.4,286047017.2,N
1498280055.2,286047014.9,N
1498280075.0,286047014.8,N
1498280075.9,286047014.8,N
1498280095.8,286047014.6,N
1498280115.6,286047014.5,N
1498280135.4,286047015.2,N
1498280155.3,286047016.7,N
1498280175.1,286047016.8,N
1498280195.8,286047014.6,N
1498280215.7,286047017.1,N
1498280235.5,286047014.5,N
1498280255.3,286047017.1,N
1498280275.2,286047015.0,N
1498280295.9,286047015.0,N
1498280315.7,286047015.6,N
1498280335.5,286047013.1,N
1498280355.4,286047013.2,N
1498280375.2,286047013.1,N
1498280395.0,286047011.0,N
1498280395.9,286047011.0,N
